Wind_Speed
23 23 22 22 22 22 22 21 21 21 21 20 20 20 19 19 19 18 17 17 17 17 17 17 18 18 18 18 18 18 19 19 19 19 19 20 20 21 21 21 22 22 24
23 23 23 23 23 23 24 23 23 23 23 22 21 21 22 22 21 21 20 20 20 19 20 20 20 20 20 20 20 21 21 21 21 21 22 22 23 23 24 24 25 26 27
23 24 24 23 23 24 25 25 26 25 24 24 24 24 24 24 24 23 23 22 22 22 22 21 21 22 22 22 22 22 23 23 23 24 24 25 25 26 27 27 27 28 29
24 24 25 24 24 25 25 26 27 27 26 26 26 25 25 25 25 25 25 25 25 24 24 24 24 24 24 24 25 25 26 26 27 27 27 28 28 29 30 30 31 31 32
25 24 25 26 25 25 25 25 27 27 27 27 27 27 27 27 27 27 27 27 27 27 27 27 27 27 27 27 27 28 28 29 30 30 30 31 32 32 33 33 34 35 35
25 26 26 27 27 27 27 27 27 27 27 29 29 28 28 28 29 29 28 29 30 30 30 29 29 30 29 28 29 29 30 31 32 33 33 34 34 35 36 37 37 38 38
28 28 27 26 27 28 28 28 29 29 28 28 29 29 29 29 30 30 29 30 30 31 31 31 31 31 31 31 32 32 32 33 34 35 35 36 37 38 39 40 40 41 41
28 29 28 27 28 30 30 29 30 30 30 30 30 30 31 30 30 30 30 31 32 32 32 33 33 34 34 33 34 35 36 37 38 38 39 40 40 41 42 43 43 44 44
30 30 29 30 30 31 31 31 32 32 32 31 32 32 32 32 32 32 33 33 33 33 34 34 35 36 35 35 35 36 37 38 39 41 42 43 44 44 45 45 45 46 46
31 31 30 30 31 31 32 34 34 34 34 33 34 34 34 33 33 33 34 35 35 35 36 37 36 37 37 37 38 39 39 41 42 43 44 45 45 46 48 48 47 48 48
33 32 31 31 32 32 32 32 33 34 34 35 35 35 36 36 35 35 35 36 37 37 37 38 38 38 39 39 40 41 42 43 44 45 46 47 48 49 49 49 49 50 50
33 33 33 33 33 33 32 32 33 34 35 36 36 37 37 37 37 37 37 37 37 38 39 39 39 40 41 41 41 42 44 45 46 46 47 48 48 49 49 50 50 50 51
34 33 33 33 33 33 33 34 33 34 34 35 36 37 37 37 38 38 39 40 40 40 41 42 42 42 42 42 44 45 45 46 47 48 48 48 49 49 49 50 50 50 50
35 34 33 33 33 34 35 35 34 34 35 36 36 36 36 36 37 39 40 41 42 42 42 42 42 42 43 43 44 45 46 47 48 49 49 49 49 49 49 48 48 49 49
35 34 33 33 33 33 33 33 33 33 33 34 35 35 35 36 37 38 39 41 42 42 42 42 42 43 44 45 46 47 47 47 47 47 47 47 47 47 47 47 47 47 48
35 34 34 34 34 33 33 33 33 33 33 34 34 34 35 36 37 38 39 41 42 42 42 42 42 43 44 45 46 46 46 45 44 44 44 44 44 44 44 44 44 44 44
34 34 34 34 34 33 33 32 32 31 32 33 33 34 35 36 38 38 38 39 40 40 41 41 42 43 44 44 44 43 43 42 42 43 42 42 41 41 40 40 40 40 39
34 34 34 34 33 33 33 32 32 32 32 32 33 33 35 36 36 36 37 37 38 38 39 39 40 41 41 41 41 40 39 40 39 39 39 39 38 37 37 36 36 36 35
33 33 32 32 31 30 30 29 30 29 31 31 31 32 33 34 35 35 36 36 37 37 37 38 38 38 38 38 37 37 37 36 35 35 35 34 34 34 33 33 34 33 32
31 31 30 30 29 29 29 29 29 29 29 30 31 32 33 33 34 34 35 35 35 34 35 35 35 35 35 34 34 34 33 33 32 32 31 31 31 30 30 30 29 29 29
27 26 26 26 26 26 27 28 28 28 29 29 30 30 31 32 33 32 32 32 32 32 32 33 32 32 32 31 31 30 30 30 29 28 28 27 26 26 26 26 26 26 26
23 22 22 23 23 24 24 24 25 26 26 26 27 28 28 28 29 29 29 30 30 30 30 30 30 29 29 28 27 26 26 25 25 24 23 22 23 23 23 22 22 22 23
20 20 21 21 20 21 21 22 23 23 23 23 24 24 25 26 26 27 27 27 27 27 27 27 27 27 26 25 24 23 21 21 20 19 19 19 19 19 19 20 19 20 20
18 19 19 19 20 20 20 20 20 21 22 22 22 22 23 23 23 24 24 24 24 24 24 24 24 23 22 21 20 19 18 17 17 16 16 16 16 16 16 17 17 18 18
16 17 17 17 17 18 18 18 19 19 20 20 20 20 20 21 21 21 21 21 21 21 21 20 20 19 19 17 16 16 15 14 13 13 14 14 14 13 14 14 15 16 17
13 14 15 15 15 16 16 17 17 17 18 18 18 19 19 20 20 19 19 19 19 19 18 17 16 16 15 14 13 12 11 11 11 11 12 12 11 11 11 12 13 14 15
Wind_Direction
260 257 255 257 256 257 257 258 256 257 257 255 256 261 261 261 265 268 269 271 273 275 276 277 279 281 281 283 283 284 285 285 285 287 285 282 280 278 276 275 275 275 273
262 260 259 256 257 257 257 257 256 257 256 256 259 261 262 265 265 265 268 271 274 275 276 277 278 279 281 283 283 282 282 282 282 283 284 285 283 280 279 278 276 275 275
266 263 261 258 257 257 256 257 257 256 255 256 258 261 263 265 266 267 268 270 272 274 275 277 278 279 280 282 282 282 282 282 281 283 284 284 283 282 281 281 281 279 277
270 265 261 260 259 258 260 258 257 256 257 258 259 261 263 265 266 267 268 270 272 273 274 276 278 279 279 280 281 282 282 282 282 283 284 284 284 284 283 281 281 280 279
272 270 265 262 262 261 260 259 259 259 259 260 263 263 264 266 267 269 271 272 274 277 276 276 277 278 278 278 280 282 282 282 282 283 284 284 284 284 284 283 282 281 280
278 277 272 266 266 264 262 261 261 262 262 262 264 267 267 267 269 271 271 272 273 275 276 277 278 279 279 280 281 282 282 284 284 284 284 284 284 284 284 283 283 282 281
281 280 277 270 266 264 264 263 263 264 265 264 264 265 267 269 269 269 271 272 273 276 277 278 278 278 278 281 282 282 282 284 285 285 285 285 285 285 284 285 284 283 282
282 282 278 273 269 266 267 267 266 265 266 266 265 265 266 268 268 269 271 272 274 276 278 279 279 279 279 281 283 283 283 284 285 285 286 286 286 286 286 286 285 285 283
280 280 279 275 272 267 267 267 267 266 268 267 266 266 265 266 267 269 271 273 275 277 278 280 281 282 283 282 284 284 285 285 286 285 285 286 286 286 286 286 285 284 283
276 278 277 274 271 269 270 269 267 267 267 267 268 268 267 267 267 268 271 272 274 277 279 280 280 282 284 284 285 285 285 286 287 288 287 287 287 287 286 286 284 284 283
275 275 274 274 271 269 270 268 265 265 265 267 268 269 269 268 268 269 269 272 274 277 278 280 282 283 284 284 285 285 286 287 288 288 289 288 288 287 287 286 285 284 283
276 275 272 274 274 271 269 268 267 264 265 267 267 269 270 269 270 271 271 272 274 276 279 282 284 284 284 284 285 285 286 287 288 288 288 289 289 289 288 286 285 284 284
275 273 273 273 272 272 270 269 269 267 267 267 269 271 270 270 270 271 272 275 276 277 279 281 282 284 284 285 286 286 287 288 288 289 289 289 289 290 289 288 288 287 286
274 273 274 272 271 271 269 268 269 269 268 268 269 270 270 270 271 273 275 276 278 279 280 282 282 283 284 286 287 287 288 289 289 290 290 290 290 291 291 290 289 289 288
272 273 273 273 271 270 270 269 269 268 268 268 270 271 271 272 273 276 277 277 279 280 281 282 283 284 285 286 287 288 288 289 290 290 290 291 291 292 292 291 291 291 290
271 271 271 272 271 271 270 270 270 270 269 269 269 271 272 274 276 279 280 279 279 280 281 282 284 285 286 287 288 288 289 290 290 290 291 292 292 292 292 292 292 292 292
272 271 272 271 271 270 270 270 272 271 271 271 273 275 277 278 278 281 281 280 281 281 281 282 284 285 286 287 288 289 290 291 291 292 292 292 292 294 295 295 295 295 294
271 271 272 270 268 269 270 270 271 272 273 274 276 277 279 280 280 281 281 282 282 282 282 283 285 286 287 288 289 289 290 291 292 293 293 293 295 296 296 296 297 297 297
270 269 269 267 267 269 269 270 272 274 275 275 276 279 281 281 282 282 283 284 284 284 284 285 286 287 288 289 290 290 291 292 293 294 294 295 296 297 298 299 299 299 301
268 266 267 266 267 267 269 271 273 275 276 277 279 281 281 281 282 282 284 285 286 286 286 287 288 289 288 289 291 292 292 293 293 294 295 295 296 297 299 300 301 303 303
264 266 269 267 268 269 271 271 273 275 278 280 281 281 281 283 284 286 286 287 287 288 289 289 290 290 290 289 290 292 292 292 293 295 296 297 297 299 301 303 305 307 307
267 268 268 269 269 271 275 277 277 278 280 281 282 284 285 285 286 289 288 287 287 289 290 290 291 291 290 288 289 290 292 292 294 296 298 300 303 305 306 307 310 313 314
267 267 270 271 276 279 280 279 279 280 282 284 286 288 287 288 290 290 291 290 289 290 290 290 291 291 290 288 289 291 291 291 294 297 300 305 307 308 310 312 315 318 320
267 270 274 274 278 281 281 282 284 286 287 287 287 289 290 291 291 291 293 293 292 291 291 292 290 290 290 287 289 291 292 293 296 299 302 307 309 311 314 318 320 323 326
266 270 274 277 280 282 283 283 285 286 287 287 289 291 293 293 293 293 294 296 296 295 295 293 291 291 291 291 290 289 290 294 297 300 304 307 308 311 315 320 323 326 329
271 273 276 278 280 283 286 286 285 286 288 289 290 292 293 294 295 296 298 298 298 298 298 297 295 292 291 291 290 291 290 290 293 299 304 306 308 312 318 324 327 330 334
Height
5861 5862 5862 5863 5863 5865 5865 5866 5868 5869 5869 5869 5870 5871 5871 5872 5873 5874 5874 5874 5875 5875 5875 5875 5875 5875 5875 5875 5875 5874 5874 5874 5874 5873 5873 5873 5873 5872 5872 5872 5872 5872 5872
5856 5856 5857 5859 5859 5861 5862 5863 5864 5864 5864 5864 5866 5867 5868 5868 5869 5869 5870 5870 5871 5871 5871 5871 5871 5871 5871 5871 5871 5870 5870 5870 5869 5869 5869 5868 5868 5867 5867 5867 5867 5866 5866
5851 5851 5852 5853 5854 5855 5856 5857 5859 5860 5859 5861 5862 5863 5864 5864 5864 5865 5865 5866 5867 5867 5867 5867 5867 5867 5866 5866 5866 5865 5865 5865 5864 5864 5864 5863 5863 5862 5862 5861 5861 5860 5860
5846 5845 5846 5847 5848 5850 5851 5852 5853 5854 5856 5856 5857 5858 5859 5860 5860 5860 5860 5861 5862 5862 5862 5862 5862 5861 5861 5861 5861 5860 5860 5859 5859 5859 5858 5857 5857 5856 5856 5855 5854 5853 5853
5840 5840 5840 5842 5843 5844 5845 5846 5848 5849 5850 5851 5852 5852 5854 5854 5855 5855 5855 5855 5856 5857 5857 5856 5856 5856 5856 5855 5855 5854 5854 5853 5853 5852 5852 5851 5850 5849 5848 5847 5847 5846 5845
5835 5835 5836 5837 5838 5839 5840 5841 5842 5843 5844 5845 5846 5847 5847 5848 5849 5849 5849 5849 5850 5850 5850 5849 5850 5850 5850 5849 5849 5848 5847 5846 5846 5845 5844 5843 5843 5842 5840 5839 5838 5837 5836
5830 5830 5830 5831 5832 5833 5833 5835 5836 5838 5838 5839 5840 5841 5841 5842 5842 5843 5843 5843 5843 5843 5843 5843 5843 5843 5843 5843 5842 5841 5840 5839 5838 5837 5836 5835 5834 5833 5832 5830 5829 5827 5826
5824 5824 5824 5824 5826 5827 5828 5829 5830 5832 5832 5832 5833 5834 5835 5836 5836 5836 5836 5837 5837 5837 5836 5836 5835 5836 5836 5835 5834 5833 5832 5831 5830 5829 5828 5826 5825 5823 5822 5820 5819 5817 5815
5818 5818 5817 5818 5819 5820 5821 5822 5823 5824 5825 5826 5826 5827 5827 5828 5829 5829 5829 5829 5829 5829 5829 5828 5828 5827 5827 5827 5826 5825 5824 5822 5821 5820 5819 5817 5815 5813 5811 5810 5808 5806 5804
5811 5810 5811 5811 5811 5813 5814 5815 5816 5817 5818 5818 5818 5819 5820 5820 5821 5821 5822 5821 5821 5821 5821 5820 5820 5819 5819 5819 5818 5816 5815 5813 5812 5810 5808 5807 5804 5802 5800 5798 5796 5794 5792
5803 5803 5803 5804 5805 5805 5806 5807 5808 5809 5810 5810 5810 5811 5811 5812 5812 5813 5814 5814 5813 5813 5812 5812 5812 5811 5810 5810 5809 5807 5805 5803 5801 5800 5797 5795 5793 5791 5788 5786 5783 5781 5779
5795 5796 5796 5797 5797 5797 5798 5799 5800 5800 5801 5801 5802 5802 5803 5803 5804 5804 5805 5805 5805 5805 5804 5803 5803 5802 5801 5800 5799 5797 5795 5793 5791 5788 5786 5783 5781 5778 5776 5773 5770 5768 5765
5788 5788 5788 5789 5789 5789 5790 5791 5791 5792 5793 5793 5794 5794 5794 5794 5795 5795 5795 5795 5796 5796 5795 5794 5793 5792 5791 5790 5788 5787 5784 5782 5780 5777 5775 5772 5769 5766 5763 5760 5757 5754 5751
5780 5780 5780 5780 5781 5781 5782 5783 5783 5783 5784 5785 5785 5785 5785 5785 5785 5786 5785 5785 5785 5785 5785 5784 5784 5782 5781 5779 5778 5776 5773 5771 5768 5766 5763 5760 5757 5753 5750 5747 5744 5741 5738
5772 5772 5772 5772 5772 5773 5774 5774 5775 5775 5776 5776 5776 5776 5776 5777 5776 5776 5775 5775 5775 5775 5775 5774 5773 5771 5770 5768 5767 5765 5762 5760 5757 5754 5751 5748 5745 5741 5738 5735 5731 5728 5725
5764 5764 5764 5765 5765 5765 5766 5766 5767 5767 5767 5768 5768 5768 5768 5768 5767 5767 5766 5765 5764 5764 5764 5763 5762 5760 5759 5757 5755 5753 5751 5748 5745 5742 5739 5737 5733 5730 5726 5723 5720 5716 5713
5756 5756 5756 5756 5757 5757 5758 5758 5759 5759 5759 5759 5759 5759 5759 5759 5758 5758 5757 5756 5754 5753 5753 5752 5751 5750 5748 5746 5744 5742 5740 5737 5734 5731 5728 5726 5722 5719 5716 5712 5709 5705 5702
5747 5748 5748 5748 5748 5749 5749 5750 5750 5750 5751 5751 5751 5751 5750 5750 5749 5748 5747 5746 5744 5743 5743 5742 5741 5739 5737 5735 5733 5731 5729 5727 5725 5722 5718 5715 5713 5709 5706 5703 5700 5696 5693
5739 5739 5740 5740 5740 5741 5741 5742 5742 5742 5742 5743 5742 5742 5741 5741 5740 5739 5738 5736 5735 5734 5733 5732 5731 5729 5728 5725 5723 5721 5719 5717 5715 5713 5710 5707 5704 5701 5697 5695 5691 5688 5685
5731 5732 5732 5732 5733 5733 5734 5734 5735 5735 5734 5734 5734 5734 5733 5732 5731 5730 5729 5727 5726 5725 5724 5723 5721 5720 5718 5716 5715 5712 5710 5708 5706 5704 5702 5699 5696 5693 5690 5687 5684 5681 5678
5724 5725 5725 5725 5726 5726 5726 5727 5727 5727 5727 5727 5726 5726 5725 5723 5722 5721 5720 5718 5717 5716 5715 5714 5713 5711 5709 5708 5706 5704 5702 5700 5698 5696 5694 5691 5689 5687 5684 5681 5678 5675 5672
5718 5718 5718 5719 5719 5719 5719 5719 5720 5720 5720 5719 5719 5718 5717 5716 5714 5713 5712 5710 5709 5708 5707 5706 5704 5703 5701 5700 5699 5697 5695 5693 5692 5690 5688 5685 5683 5681 5678 5676 5673 5670 5667
5712 5713 5713 5713 5713 5713 5713 5713 5713 5713 5713 5712 5712 5711 5710 5709 5707 5706 5704 5703 5701 5700 5699 5698 5697 5695 5694 5693 5692 5690 5689 5687 5686 5684 5682 5680 5678 5676 5674 5671 5668 5666 5663
5707 5707 5708 5708 5707 5708 5708 5708 5707 5707 5707 5706 5706 5704 5703 5702 5700 5699 5698 5696 5694 5693 5692 5691 5690 5689 5688 5686 5686 5685 5684 5683 5681 5680 5678 5677 5675 5673 5670 5668 5665 5663 5660
5702 5702 5703 5703 5703 5703 5703 5702 5702 5702 5701 5700 5699 5698 5697 5696 5695 5693 5692 5690 5689 5687 5686 5685 5684 5683 5682 5681 5680 5680 5679 5679 5678 5677 5675 5674 5672 5670 5668 5666 5664 5661 5658
5698 5699 5699 5698 5698 5698 5698 5697 5697 5696 5696 5695 5694 5693 5692 5691 5690 5688 5687 5685 5684 5682 5681 5680 5679 5678 5677 5677 5677 5676 5676 5675 5675 5674 5672 5671 5669 5668 5666 5664 5662 5659 5656